Regional Weather Roundup
Issued by NWS

Home | Current Version | Previous Version | Graphics & Text | Print | Product List | Glossary On
Versions: 1 2 3 4 5 6 7 8 9 10 11 12 13 14 15 16 17 18 19 20 21 22 23 24 25 26 27 28 29 30 31 32 33 34 35 36 37 38 39 40 41 42 43 44 45 46 47 48 49 50
000
ASUS45 KTFX 250010
RWRMT
MONTANA REGIONAL WEATHER ROUNDUP
NATIONAL WEATHER SERVICE GREAT FALLS MT
500 PM MST FRI FEB 24 2017

NOTE: "FAIR" INDICATES FEW OR NO CLOUDS BELOW 12000 FEET WITH NO
SIGNIFICANT WEATHER AND/OR OBSTRUCTIONS TO VISIBILITY.

MTZ001>007-043-250100-
WEST OF THE DIVIDE

CITY           SKY/WX    TMP DP  RH WIND       PRES   REMARKS
KALISPELL      CLOUDY    30  15  53 CALM      30.08F
MISSOULA       CLOUDY    32  15  49 N8        30.08S WCI  25
BUTTE          CLOUDY    24  13  62 S3        29.94S
MULLAN PASS    CLOUDY    18  14  84 CALM      29.96S
ANACONDA         N/A     27   7  43 N7        29.97S WCI  19
DEER LODGE       N/A     28   9  43 NW12      30.00S WCI  18
EUREKA           N/A     28  16  59 E6        30.11S WCI  22
HAMILTON         N/A     32  12  43 NW7       30.04S WCI  26
LIBBY            N/A     36  16  44 CALM      30.09F
RONAN            N/A     31  14  49 CALM      30.12S
$$

MTZ008-052>055-250100-
SOUTHWEST MONTANA

CITY           SKY/WX    TMP DP  RH WIND       PRES   REMARKS
BOZEMAN        CLOUDY    29  17  61 E5        29.98S
DILLON         CLOUDY    27  12  53 SW6       29.93S WCI  20
W YELLOWSTONE  CLOUDY    16   7  67 SW10G23   29.93R HAZE    WCI   3
ENNIS          CLOUDY    23  16  74 SW5       30.00R
THREE FORKS      N/A     30 -61   1 CALM      29.98S
$$

MTZ009-010-012-014-046-048-049-054-250100-
EAST SLOPES AND CENTRAL MONTANA

CITY           SKY/WX    TMP DP  RH WIND       PRES   REMARKS
CUT BANK       CLOUDY    25  15  66 N10       30.02S WCI  15
GREAT FALLS    PTCLDY    30  11  45 N9        30.01S WCI  22
MALMSTROM AFB  CLEAR     30  14  50 N8        30.03S WCI  23
HELENA         CLOUDY    32  11  41 W7        29.99S WCI  26
AUGUSTA        MOCLDY    26  12  56 E5        29.99R
BOWMANS CRNR   MOCLDY    27  11  51 NE10      29.97S WCI  17
CHOTEAU          N/A     28  10  47 NE8       30.03S WCI  20
POWER            N/A     29  10  45 N10       30.01S WCI  20
RAYNESFORD     FLURRIES  24  21  85 CALM      30.01S
ULM              N/A     29  18  63 MISG      30.02S
$$

MTZ011-013-016-021-045-047-050-051-250100-
NORTH CENTRAL MONTANA

CITY           SKY/WX    TMP DP  RH WIND       PRES   REMARKS
HAVRE          CLOUDY    29  27  92 NE6       30.05S WCI  23
LEWISTOWN      LGT SNOW  24  21  88 N6        29.99S FOG     WCI  17
N BAR RANCH    MOCLDY    23  18  80 NW7       29.99S WCI  15
CHINOOK          N/A     30  25  80 W9        30.06S WCI  22
DENTON         MOCLDY    27  20  77 NW8       29.99R WCI  18
FORT BENTON      N/A     32  21  64 MISG      30.06S
GEYSER         FLURRIES  26  22  84 E5        29.99S
GRASS RANGE    FLURRIES  26  21  79 W8        29.96S WCI  18
JUDITH GAP     LGT SNOW  22  20  91 N14       29.96S FOG     WCI   9
ROY            MOCLDY    27  23  84 MISG      29.99S
STANFORD       FLURRIES  24  22  91 N8        29.98S WCI  15
WINIFRED       MOCLDY    26  21  82 W6        30.00S WCI  19
$$

MTZ017>020-022>027-061-062-250100-
NORTHEAST MONTANA

CITY           SKY/WX    TMP DP  RH WIND       PRES   REMARKS
GLASGOW        FLURRIES  31  24  75 S5        30.04S
JORDAN           N/A     33  21  61 W3        30.02S
SIDNEY         CLOUDY    28  17  63 SW5       30.09S
WOLF POINT     CLOUDY    32  22  66 SW5       30.06F
PLENTYWOOD       N/A     28  23  80 SW9       30.04F WCI  20
POPLAR           N/A     30  21  69 SW3       30.07F
$$

MTZ028>42-056>058-250100-
SOUTHCENTRAL AND SOUTHEAST MONTANA

CITY           SKY/WX    TMP DP  RH WIND       PRES   REMARKS
BAKER          CLOUDY    29  14  53 W3        30.04S
BILLINGS       CLOUDY    28  22  78 W5        30.00S
LIVINGSTON     CLOUDY    28  18  66 NW8       29.96R WCI  20
MILES CITY     CLOUDY    32  18  56 SE5       30.03F
BIG TIMBER     PTCLDY    25  18  74 CALM      29.99S HAZE
FORSYTH          N/A     34  19  55 E5        30.03R
HARLOWTON      FLURRIES  24  20  85 N5        29.98R
LAUREL           N/A     29  19  66 CALM      29.99S
$$

REGIONAL REPORTS...DAKOTAS

CITY           SKY/WX    TMP DP  RH WIND       PRES   REMARKS
WILLISTON      CLOUDY    27  15  61 SW8       30.09S WCI  19
MINOT          MOCLDY    27  17  66 CALM      30.08F
DICKINSON      CLOUDY    23  14  68 SW6       30.05S WCI  16
BEACH            N/A    N/A N/A N/A MISG        N/A
CROSBY         MOCLDY    27  21  80 SW10      30.09S WCI  17
TIOGA          MOCLDY    23  19  86 SW7       30.08S WCI  15
WATFORD CITY   MOCLDY    25  16  68 W7        30.09S WCI  17
BISMARCK       MOCLDY    28  14  55 NW9       30.12S WCI  19
GRAND FORKS    PTCLDY    19   8  62 N16       30.13R WCI   4
FARGO          MOCLDY    22  14  71 N20       30.08S WCI   7
BUFFALO SD       N/A     29  10  45 CALM      29.98R
RAPID CITY     CLOUDY    20  14  77 S6        30.06R WCI  12
$$

REGIONAL REPORTS...WYOMING/IDAHO/WASHINGTON

CITY           SKY/WX    TMP DP  RH WIND       PRES   REMARKS
GILLETTE       PTCLDY    25  17  72 S13       29.97R WCI  14
SHERIDAN       CLOUDY    27  18  69 S7        29.97S WCI  19
BUFFALO WY     CLOUDY    25  16  68 CALM      29.94R
CODY           FLURRIES  25  19  78 NE5       29.95R
YELLOWSTONE LA   N/A     14   6  70 VRB5      29.89R
IDAHO FALLS    CLOUDY    20  18  92 SW18      30.07R FOG     WCI   5
SALMON         PTSUNNY   34  16  47 N5        29.98R
BOISE          MOSUNNY   36  14  40 NW7       30.13F WCI  30
SPOKANE        FLURRIES  30  26  85 NW5       30.14S
$$

REGIONAL REPORTS...ALBERTA

CITY           SKY/WX    TMP DP  RH WIND       PRES   REMARKS
EDMONTON       CLEAR     16   7  67 N5        30.16F
CALGARY        CLOUDY    18  12  79 NE7       30.06F WCI   8
LETHBRIDGE     MOCLDY    27  23  86 NW6       30.06S WCI  20
MEDICINE HAT   CLOUDY    30  19  64 NW2       30.07S
WATERTON GATE    N/A     21  14  73 E7          N/A  WCI  13
CARDSTON         N/A     25  18  74 N2          N/A
MILK RIVER       N/A     27  21  80 NW9         N/A  WCI  17
ONEFOUR          N/A     21  18  86 NW10        N/A  WCI  10
$$

REGIONAL REPORTS...SASKATCHEWAN

CITY           SKY/WX    TMP DP  RH WIND       PRES   REMARKS
SWIFT CURRENT  PTCLDY    27  18  69 NW8       30.01F WCI  18
REGINA         FLURRIES  25  23  93 W7        30.03S WCI  17
SASKATOON      FLURRIES  25  18  74 NW9       30.08S WCI  15
CYPRESS HILLS    N/A     21  14  73 NW5         N/A
VAL MARIE        N/A     28  23  80 N9          N/A  WCI  20
ROCKGLEN         N/A     25  19  80 NW10        N/A  WCI  15
ASSINIBOIA       N/A     14   5  67 N12         N/A  WCI   0
$$



USA.gov is the U.S. government's official web portal to all federal, state and local government web resources and services.